W2PJ Weather Reports


Display with metric or nautical units.
time (UTC)temp
F
wind
direction
speed
MPH
gust
MPH
rain 1hr
in
rain 24hr
in
rain mn
in
humidity
%
barometer
mb
20260510102530 49 285 0.0 1.0 0.00 0.10 0.04 92 1009.8
20260510102043 49 275 0.0 1.0 0.00 0.10 0.04 92 1009.7
20260510101515 49 289 0.0 1.0 0.00 0.10 0.04 92 1009.5
20260510101032 49 279 0.0 1.0 0.00 0.10 0.04 92 1009.4
20260510100551 49 263 0.0 0.0 0.00 0.10 0.04 92 1009.3
20260510100012 49 259 0.0 0.0 0.00 0.10 0.04 92 1009.1
20260510095529 49 292 0.0 0.0 0.00 0.10 0.04 92 1009.0
20260510095046 49 285 0.0 0.0 0.00 0.10 0.04 92 1008.8
20260510094626 49 297 0.0 0.0 0.00 0.10 0.04 92 1008.7
20260510094017 49 245 0.0 0.0 0.00 0.10 0.04 92 1008.6
20260510093535 49 162 0.0 0.0 0.00 0.10 0.04 93 1008.6
20260510093009 49 140 0.0 0.0 0.00 0.10 0.04 92 1008.5
20260510092531 49 131 0.0 0.0 0.00 0.10 0.04 92 1008.6
20260510092052 49 145 0.0 0.0 0.00 0.10 0.04 92 1008.5
20260510091521 49 171 0.0 0.0 0.00 0.10 0.04 92 1008.3
20260510091037 49 214 0.0 0.0 0.00 0.10 0.04 92 1008.3
20260510090600 49 148 0.0 0.0 0.00 0.10 0.04 93 1008.3
20260510090114 49 152 0.0 1.0 0.00 0.10 0.04 93 1008.4
20260510085515 48 144 0.0 0.0 0.00 0.10 0.04 93 1008.3
20260510085036 48 152 0.0 0.0 0.00 0.10 0.04 93 1008.3
20260510084505 48 143 0.0 0.0 0.00 0.10 0.04 93 1008.2
20260510084023 48 140 0.0 0.0 0.00 0.10 0.04 93 1008.1
20260510083541 48 144 0.0 0.0 0.00 0.10 0.04 93 1008.2
20260510083011 48 171 0.0 0.0 0.00 0.10 0.04 93 1008.1
20260510082531 48 166 0.0 0.0 0.00 0.10 0.04 93 1008.0
20260510082050 48 133 0.0 0.0 0.00 0.10 0.04 93 1007.9
20260510081518 47 136 0.0 0.0 0.00 0.10 0.04 93 1008.1
20260510081029 47 155 0.0 0.0 0.00 0.10 0.04 93 1008.1
20260510080543 47 182 0.0 0.0 0.00 0.10 0.04 93 1007.9
20260510080015 47 123 0.0 0.0 0.00 0.10 0.04 93 1007.8
20260510075537 47 148 0.0 0.0 0.00 0.10 0.04 93 1007.9
20260510075055 47 155 0.0 0.0 0.00 0.10 0.04 93 1007.9
20260510074505 47 144 0.0 0.0 0.00 0.10 0.04 93 1007.8
20260510074028 47 137 0.0 0.0 0.00 0.10 0.04 93 1007.9
20260510073546 47 138 0.0 0.0 0.00 0.10 0.04 93 1007.9
20260510073007 47 134 0.0 0.0 0.00 0.10 0.04 93 1007.9
20260510072525 47 164 0.0 0.0 0.00 0.10 0.04 93 1007.7
20260510072041 48 125 0.0 0.0 0.00 0.10 0.04 93 1007.6
20260510071515 48 154 0.0 0.0 0.00 0.10 0.04 93 1007.6
20260510071029 48 112 0.0 0.0 0.00 0.10 0.04 93 1007.7
20260510070545 48 255 0.0 0.0 0.00 0.10 0.04 93 1007.5
20260510070122 48 131 0.0 0.0 0.00 0.10 0.04 93 1007.6
20260510065503 48 131 0.0 0.0 0.00 0.10 0.04 93 1007.4
20260510065024 48 158 0.0 0.0 0.00 0.10 0.04 93 1007.3
20260510064524 48 151 0.0 0.0 0.00 0.10 0.04 93 1007.1
20260510064038 48 142 0.0 0.0 0.00 0.10 0.04 93 1007.2
20260510063559 48 144 0.0 0.0 0.00 0.10 0.04 93 1007.3
20260510063107 48 138 0.0 1.0 0.00 0.10 0.04 93 1007.5
20260510062631 48 164 0.0 1.0 0.00 0.10 0.04 93 1007.5
20260510062014 48 240 0.0 0.0 0.00 0.10 0.04 93 1007.7
20260510061548 48 212 0.0 0.0 0.00 0.10 0.04 93 1007.5
20260510061103 48 179 0.0 1.0 0.00 0.10 0.04 93 1007.6
20260510060620 49 176 0.0 1.0 0.00 0.10 0.04 93 1007.5
20260510060015 49 186 0.0 1.0 0.00 0.10 0.04 93 1007.6
20260510055534 49 134 0.0 1.0 0.00 0.10 0.04 93 1007.7
20260510055053 49 144 0.0 1.0 0.00 0.10 0.04 93 1007.8
20260510054516 49 142 0.0 1.0 0.00 0.10 0.04 93 1007.7
20260510054035 49 142 0.0 1.0 0.00 0.10 0.04 93 1007.7
20260510053556 49 152 0.0 6.0 0.00 0.10 0.04 93 1007.8
20260510053002 49 136 0.0 5.0 0.00 0.10 0.04 93 1007.6
20260510052516 49 138 0.0 6.0 0.00 0.10 0.04 92 1007.8
20260510052033 49 148 0.0 6.0 0.00 0.10 0.04 92 1007.7
20260510051507 49 159 0.0 9.0 0.01 0.10 0.04 92 1007.7
20260510051023 49 85 0.0 9.0 0.03 0.10 0.04 92 1007.6
20260510050542 49 129 0.0 6.0 0.04 0.10 0.04 92 1007.5
20260510050026 49 144 0.0 6.0 0.04 0.10 0.04 92 1007.4
20260510045535 50 234 0.0 11.0 0.05 0.10 0.04 92 1007.3
20260510045055 50 155 0.0 11.0 0.06 0.10 0.04 92 1007.2
20260510044606 50 150 0.0 7.0 0.07 0.10 0.04 92 1007.4
20260510044011 50 129 0.0 9.0 0.07 0.10 0.04 92 1007.4
20260510043529 50 129 0.0 4.0 0.08 0.10 0.04 92 1007.2
20260510043059 50 152 0.0 3.0 0.08 0.10 0.04 92 1007.5
20260510042608 50 145 0.0 3.0 0.08 0.10 0.04 92 1007.5
20260510042125 50 145 0.0 3.0 0.08 0.10 0.04 92 1007.7
20260510041521 50 105 0.0 1.0 0.07 0.09 0.03 92 1007.7
20260510041041 50 152 0.0 1.0 0.05 0.07 0.01 92 1007.9
20260510040555 50 150 0.0 1.0 0.05 0.06 0.00 92 1008.0
20260510040003 50 150 0.0 1.0 0.05 0.06 0.00 92 1007.9
20260510035533 50 189 0.0 1.0 0.04 0.05 0.05 91 1007.8
20260510035023 50 154 0.0 4.0 0.03 0.04 0.04 91 1007.9
20260510034523 50 176 0.0 4.0 0.02 0.03 0.03 91 1007.8
20260510034026 51 168 0.0 3.0 0.02 0.03 0.03 91 1007.8
20260510033521 51 264 0.0 5.0 0.01 0.02 0.02 91 1007.9
20260510033025 51 240 0.0 5.0 0.01 0.02 0.02 90 1007.8
20260510032522 51 247 0.0 1.0 0.01 0.02 0.02 90 1007.8
20260510032023 51 252 0.0 0.0 0.01 0.02 0.02 89 1007.9
20260510031522 52 259 0.0 1.0 0.01 0.02 0.02 89 1007.8
20260510031023 52 294 0.0 12.0 0.01 0.02 0.02 88 1008.0
20260510030625 53 282 0.0 18.0 0.00 0.01 0.01 87 1008.1
20260510030021 53 280 8.0 18.0 0.00 0.01 0.01 84 1008.0
20260510025523 54 249 5.0 22.0 0.00 0.01 0.01 84 1008.0
20260510025023 54 276 11.0 27.0 0.00 0.01 0.01 84 1007.8
20260510024522 54 257 7.0 27.0 0.00 0.01 0.01 87 1007.6
20260510024023 54 131 3.0 17.0 0.00 0.01 0.01 88 1007.1
20260510023519 53 169 0.0 11.0 0.00 0.01 0.01 89 1006.9
20260510023020 53 154 1.0 11.0 0.00 0.01 0.01 89 1006.4
20260510022520 53 165 0.0 10.0 0.00 0.01 0.01 89 1006.4
20260510022018 53 189 0.0 10.0 0.00 0.01 0.01 89 1006.5
20260510021519 53 91 0.0 8.0 0.00 0.01 0.01 89 1006.2
20260510021019 53 136 0.0 8.0 0.00 0.01 0.01 89 1006.1
20260510020518 53 141 0.0 10.0 0.00 0.01 0.01 89 1006.1
20260510020019 53 120 1.0 10.0 0.00 0.01 0.01 89 1006.1
20260510015518 53 122 0.0 8.0 0.00 0.01 0.01 89 1006.1
20260510015017 53 111 0.0 6.0 0.00 0.01 0.01 89 1005.9
20260510014522 52 76 0.0 6.0 0.00 0.01 0.01 89 1005.8
20260510014017 52 133 0.0 10.0 0.00 0.01 0.01 89 1006.0
20260510013518 52 154 0.0 10.0 0.00 0.01 0.01 89 1006.0
20260510013117 52 155 0.0 9.0 0.00 0.01 0.01 89 1006.0
20260510012516 53 154 0.0 14.0 0.00 0.01 0.01 89 1005.9
20260510012016 53 114 0.0 14.0 0.00 0.01 0.01 89 1005.9
20260510011526 53 159 0.0 6.0 0.00 0.01 0.01 89 1005.7
20260510011018 53 140 0.0 6.0 0.00 0.01 0.01 88 1005.7
20260510010516 53 168 0.0 13.0 0.00 0.01 0.01 88 1005.5
20260510010017 53 224 1.0 10.0 0.00 0.01 0.01 88 1005.6
20260510005515 53 167 0.0 6.0 0.00 0.01 0.01 88 1005.5
20260510005015 53 165 0.0 9.0 0.00 0.01 0.01 88 1005.6
20260510004515 53 157 0.0 9.0 0.00 0.01 0.01 88 1005.7
20260510004014 53 141 0.0 7.0 0.00 0.01 0.01 87 1005.6
20260510003515 53 164 0.0 11.0 0.00 0.01 0.01 87 1005.6
20260510003014 53 177 1.0 11.0 0.00 0.01 0.01 87 1005.5
20260510002513 53 162 2.0 11.0 0.00 0.01 0.01 86 1005.4
20260510002016 53 145 3.0 12.0 0.00 0.01 0.01 86 1005.5
20260510001513 54 197 2.0 16.0 0.00 0.01 0.01 86 1005.4
20260510001014 54 176 7.0 14.0 0.00 0.01 0.01 85 1005.4
20260510000514 54 171 2.0 13.0 0.00 0.01 0.01 85 1005.3
20260510000014 54 171 3.0 13.0 0.00 0.01 0.01 84 1005.2
20260509235513 54 186 3.0 13.0 0.00 0.01 0.01 84 1005.1
20260509235013 55 204 2.0 15.0 0.00 0.01 0.01 83 1005.2
20260509234512 55 162 7.0 15.0 0.00 0.01 0.01 83 1005.2
20260509234013 55 220 6.0 15.0 0.00 0.01 0.01 82 1005.3
20260509233513 55 175 5.0 12.0 0.00 0.01 0.01 82 1005.3
20260509233012 55 192 2.0 19.0 0.00 0.01 0.01 81 1005.0
20260509232513 56 183 6.0 18.0 0.00 0.01 0.01 80 1005.1
20260509232011 56 195 5.0 17.0 0.00 0.01 0.01 80 1005.0
20260509231515 56 183 8.0 17.0 0.00 0.01 0.01 79 1005.1
20260509231012 57 203 5.0 19.0 0.00 0.01 0.01 78 1005.1
20260509230511 57 193 9.0 19.0 0.00 0.01 0.01 78 1005.1
20260509230011 57 219 3.0 16.0 0.00 0.01 0.01 78 1005.2
20260509225510 57 161 7.0 14.0 0.00 0.01 0.01 78 1005.4
20260509225009 57 175 4.0 15.0 0.00 0.01 0.01 77 1005.2
20260509224511 58 175 5.0 15.0 0.00 0.01 0.01 77 1005.1
20260509224009 58 233 7.0 14.0 0.00 0.01 0.01 77 1004.9
20260509223509 58 228 3.0 13.0 0.00 0.01 0.01 77 1005.1
20260509223008 58 164 3.0 10.0 0.00 0.01 0.01 77 1005.4
20260509222509 57 219 0.0 10.0 0.00 0.01 0.01 78 1005.3
20260509222008 57 197 0.0 10.0 0.00 0.01 0.01 79 1005.4
20260509221525 57 171 1.0 11.0 0.00 0.01 0.01 78 1005.4
20260509221008 57 176 4.0 11.0 0.00 0.01 0.01 76 1005.3
20260509220507 58 204 1.0 15.0 0.00 0.01 0.01 77 1005.2
20260509220009 58 207 1.0 15.0 0.00 0.01 0.01 76 1005.1
20260509215507 58 241 3.0 18.0 0.00 0.01 0.01 76 1005.2
20260509215006 58 165 7.0 18.0 0.00 0.01 0.01 75 1005.2
20260509214505 58 180 7.0 16.0 0.00 0.01 0.01 76 1005.1
20260509214005 58 177 8.0 16.0 0.00 0.01 0.01 75 1005.3
20260509213504 58 234 4.0 14.0 0.00 0.01 0.01 75 1005.2
20260509213005 58 241 4.0 15.0 0.00 0.01 0.01 75 1005.3
20260509212501 58 202 7.0 14.0 0.00 0.01 0.01 74 1005.6
20260509212102 58 179 3.0 13.0 0.00 0.01 0.01 76 1005.6
20260509211559 57 168 2.0 14.0 0.00 0.01 0.01 77 1005.6
20260509211059 57 169 4.0 14.0 0.00 0.01 0.01 77 1005.7
20260509210558 57 162 1.0 15.0 0.00 0.01 0.01 77 1005.7
20260509205555 58 195 6.0 17.0 0.00 0.01 0.01 77 1005.6
20260509205054 58 141 8.0 17.0 0.00 0.01 0.01 76 1005.6
20260509204558 58 183 6.0 16.0 0.00 0.01 0.01 74 1005.6
20260509204051 58 126 3.0 20.0 0.00 0.01 0.01 75 1005.7
20260509203550 58 212 7.0 20.0 0.00 0.01 0.01 74 1005.8
20260509203053 58 159 9.0 19.0 0.00 0.01 0.01 75 1005.9
20260509202550 58 147 8.0 19.0 0.00 0.01 0.01 75 1006.0
20260509202051 58 141 1.0 14.0 0.00 0.01 0.01 76 1005.9
20260509201547 57 247 0.0 14.0 0.00 0.01 0.01 78 1006.0
20260509201044 56 162 4.0 19.0 0.00 0.01 0.01 77 1006.0
20260509200542 56 212 2.0 19.0 0.00 0.01 0.01 77 1006.1
20260509200044 57 235 0.0 8.0 0.00 0.01 0.01 78 1006.2
20260509195541 56 224 2.0 8.0 0.00 0.02 0.01 78 1006.2
20260509195043 56 234 0.0 9.0 0.00 0.02 0.01 78 1006.3
20260509194540 56 129 1.0 12.0 0.00 0.02 0.01 78 1006.3
20260509194039 56 197 2.0 13.0 0.00 0.02 0.01 79 1006.4
20260509193539 56 235 2.0 13.0 0.00 0.02 0.01 80 1006.4
20260509193045 56 228 1.0 9.0 0.00 0.02 0.01 80 1006.5
20260509192536 56 189 2.0 9.0 0.00 0.02 0.01 80 1006.5
20260509192045 56 219 1.0 9.0 0.00 0.02 0.01 81 1006.6
20260509191539 55 178 1.0 10.0 0.00 0.02 0.01 81 1006.6
20260509191035 55 173 0.0 16.0 0.00 0.02 0.01 80 1006.7
20260509190537 55 176 0.0 16.0 0.00 0.02 0.01 80 1006.8
20260509190043 55 175 0.0 10.0 0.00 0.02 0.01 82 1006.9
20260509185531 55 178 3.0 10.0 0.00 0.02 0.01 81 1007.0
20260509185031 54 234 0.0 8.0 0.00 0.02 0.01 82 1006.9
20260509184535 54 193 1.0 10.0 0.00 0.02 0.01 82 1007.0
20260509184029 54 251 1.0 10.0 0.00 0.02 0.01 82 1007.1
20260509183529 54 214 0.0 6.0 0.00 0.02 0.01 83 1007.2
20260509183037 54 207 1.0 12.0 0.00 0.02 0.01 82 1007.2
20260509182528 55 245 2.0 12.0 0.00 0.02 0.01 82 1007.2
20260509182031 54 228 0.0 9.0 0.00 0.02 0.01 82 1007.2
20260509181527 54 174 0.0 9.0 0.00 0.02 0.01 82 1007.1
20260509181030 54 214 0.0 10.0 0.00 0.02 0.01 83 1007.1
20260509180525 54 227 1.0 10.0 0.00 0.02 0.01 83 1007.1
20260509180026 54 248 0.0 7.0 0.00 0.02 0.01 84 1007.2
20260509175525 54 228 0.0 7.0 0.00 0.02 0.01 84 1007.1
20260509175028 54 211 0.0 7.0 0.00 0.02 0.01 84 1007.1
20260509174526 54 116 1.0 8.0 0.00 0.02 0.01 84 1007.2
20260509174023 54 189 0.0 8.0 0.00 0.02 0.01 85 1007.2
20260509173523 53 219 0.0 8.0 0.00 0.02 0.01 85 1007.2
20260509173022 53 136 0.0 12.0 0.00 0.02 0.01 85 1007.3
20260509172522 53 189 1.0 14.0 0.00 0.02 0.01 85 1007.2
20260509172019 53 193 4.0 14.0 0.00 0.02 0.01 85 1007.3
20260509171522 52 231 3.0 9.0 0.00 0.02 0.01 86 1007.4
20260509171018 52 220 0.0 2.0 0.00 0.02 0.01 87 1007.5
20260509170517 52 171 0.0 0.0 0.00 0.02 0.01 87 1007.5
20260509170026 52 217 0.0 8.0 0.00 0.02 0.01 87 1007.5
20260509165513 52 167 0.0 8.0 0.00 0.02 0.01 86 1007.5
20260509165012 52 169 0.0 4.0 0.00 0.02 0.01 87 1007.6
20260509164511 52 169 0.0 6.0 0.00 0.02 0.01 88 1007.6
20260509164014 52 183 0.0 6.0 0.00 0.02 0.01 88 1007.7
20260509163508 51 188 0.0 7.0 0.00 0.02 0.01 89 1007.7
20260509163010 51 231 0.0 7.0 0.00 0.02 0.01 89 1007.9
20260509162507 51 197 0.0 3.0 0.00 0.02 0.01 89 1007.9
20260509162010 51 185 0.0 3.0 0.00 0.02 0.01 89 1008.0
20260509161505 51 207 0.0 3.0 0.00 0.02 0.01 90 1008.0
20260509161003 50 119 0.0 4.0 0.00 0.02 0.01 90 1008.1
20260509160502 50 162 0.0 4.0 0.00 0.02 0.01 90 1008.1
20260509160002 50 146 0.0 3.0 0.00 0.02 0.01 90 1008.2
20260509155501 50 145 0.0 7.0 0.00 0.02 0.01 90 1008.3
20260509155100 50 174 1.0 7.0 0.00 0.02 0.01 90 1008.2
20260509154600 50 139 0.0 0.0 0.00 0.02 0.01 90 1008.3
20260509154101 50 150 0.0 1.0 0.00 0.02 0.01 90 1008.3
20260509153559 50 164 0.0 1.0 0.00 0.02 0.01 90 1008.4
20260509153102 50 155 0.0 1.0 0.00 0.02 0.01 90 1008.4
20260509152558 50 148 0.0 2.0 0.00 0.02 0.01 90 1008.5
20260509152057 50 169 0.0 2.0 0.00 0.02 0.01 90 1008.6
20260509151606 50 190 0.0 1.0 0.00 0.02 0.01 90 1008.7
20260509151100 50 133 0.0 4.0 0.00 0.02 0.01 90 1008.7
20260509150557 50 138 0.0 4.0 0.00 0.02 0.01 91 1008.7
20260509150057 50 145 0.0 0.0 0.00 0.02 0.01 90 1008.6
20260509145558 50 132 0.0 0.0 0.00 0.06 0.01 90 1008.7
20260509145054 50 178 0.0 1.0 0.00 0.06 0.01 91 1008.7
20260509144554 50 144 0.0 1.0 0.00 0.06 0.01 91 1008.7
20260509144052 50 155 0.0 7.0 0.00 0.06 0.01 91 1008.7
20260509143553 49 150 0.0 7.0 0.00 0.06 0.01 92 1008.7
20260509143050 49 120 0.0 6.0 0.00 0.06 0.01 92 1008.8
20260509142548 49 136 0.0 1.0 0.01 0.06 0.01 92 1008.8
20260509142048 48 119 0.0 1.0 0.01 0.06 0.01 92 1008.9
20260509141549 48 231 0.0 0.0 0.01 0.06 0.01 92 1009.0
20260509141045 48 238 0.0 0.0 0.01 0.06 0.01 92 1009.0
20260509140546 48 165 0.0 0.0 0.01 0.06 0.01 92 1009.1
20260509140045 48 165 0.0 0.0 0.01 0.06 0.01 92 1009.0
20260509135542 47 114 0.0 6.0 0.01 0.15 0.01 92 1009.1
20260509135041 47 138 0.0 6.0 0.01 0.15 0.01 92 1009.1
20260509134552 47 151 0.0 1.0 0.01 0.15 0.01 92 1009.1
20260509134045 47 158 0.0 0.0 0.01 0.15 0.01 92 1009.2
20260509133540 47 150 0.0 0.0 0.01 0.15 0.01 92 1009.2
20260509133042 47 227 0.0 1.0 0.01 0.15 0.01 92 1009.1
20260509132541 47 157 0.0 1.0 0.00 0.14 0.00 92 1009.1
20260509132042 47 207 0.0 6.0 0.00 0.14 0.00 92 1009.1
20260509131556 47 168 0.0 6.0 0.00 0.14 0.00 92 1009.1
20260509131037 47 164 0.0 3.0 0.00 0.14 0.00 92 1009.0
20260509130539 47 162 0.0 3.0 0.00 0.14 0.00 92 1009.0
20260509130049 46 133 0.0 3.0 0.00 0.14 0.00 92 1009.0
20260509125536 46 190 0.0 5.0 0.00 0.14 0.00 92 1008.9
20260509125034 46 167 0.0 7.0 0.00 0.14 0.00 92 1009.0
20260509124542 46 139 0.0 7.0 0.00 0.14 0.00 92 1009.1
20260509124034 46 247 0.0 7.0 0.00 0.14 0.00 91 1009.1
20260509123534 46 107 0.0 3.0 0.00 0.14 0.00 91 1009.1
20260509123037 46 178 0.0 3.0 0.00 0.14 0.00 91 1009.2
20260509122533 46 113 0.0 7.0 0.00 0.14 0.00 90 1009.2
20260509122034 46 144 0.0 6.0 0.00 0.14 0.00 90 1009.3
20260509121532 46 145 0.0 10.0 0.00 0.14 0.00 90 1009.3
20260509121032 46 162 0.0 8.0 0.00 0.14 0.00 89 1009.3
20260509120533 46 129 0.0 9.0 0.00 0.14 0.00 89 1009.2
20260509120034 46 167 0.0 7.0 0.00 0.14 0.00 88 1009.4
20260509115531 46 133 0.0 11.0 0.00 0.14 0.00 88 1009.5
20260509115027 46 140 0.0 11.0 0.00 0.14 0.00 88 1009.5
20260509114526 46 148 0.0 8.0 0.00 0.14 0.00 88 1009.6
20260509114025 46 136 0.0 8.0 0.00 0.14 0.00 88 1009.6
20260509113528 46 168 0.0 10.0 0.00 0.14 0.00 87 1009.4
20260509113024 46 103 0.0 10.0 0.00 0.14 0.00 87 1009.5
20260509112523 46 176 0.0 5.0 0.00 0.14 0.00 87 1009.5
20260509112023 46 167 0.0 5.0 0.00 0.14 0.00 87 1009.5
20260509111624 46 157 0.0 2.0 0.00 0.14 0.00 87 1009.4
20260509111023 46 255 0.0 4.0 0.00 0.14 0.00 87 1009.5
20260509110523 45 176 0.0 4.0 0.00 0.14 0.00 86 1009.4
20260509110025 45 158 0.0 5.0 0.00 0.14 0.00 86 1009.4
20260509105520 45 154 0.0 5.0 0.00 0.15 0.00 86 1009.6
20260509105024 45 161 0.0 6.0 0.00 0.15 0.00 85 1009.6
20260509104519 45 169 0.0 6.0 0.00 0.15 0.00 85 1009.4
20260509104018 45 176 0.0 4.0 0.00 0.15 0.00 84 1009.4
20260509103518 45 165 0.0 1.0 0.00 0.15 0.00 83 1009.4
20260509103022 45 148 0.0 5.0 0.00 0.15 0.00 83 1009.5